Year,Month,Day,Hour,Minute,Value (Times are PST for temperature in C)
2018,08,23,00,00,15.20
2018,08,23,00,01,15.20
2018,08,23,00,02,15.20
2018,08,23,00,03,15.20
2018,08,23,00,04,15.20
2018,08,23,00,05,15.20
2018,08,23,00,06,15.20
2018,08,23,00,07,15.10
2018,08,23,00,08,15.10
2018,08,23,00,09,15.10
2018,08,23,00,10,15.00
2018,08,23,00,11,15.00
2018,08,23,00,12,14.90
2018,08,23,00,13,14.90
2018,08,23,00,14,14.90
2018,08,23,00,15,14.90
2018,08,23,00,16,14.90
2018,08,23,00,17,14.80
2018,08,23,00,18,14.80
2018,08,23,00,19,14.70
2018,08,23,00,20,14.70
2018,08,23,00,21,14.70
2018,08,23,00,22,14.60
2018,08,23,00,23,14.60
2018,08,23,00,24,14.60
2018,08,23,00,25,14.60
2018,08,23,00,26,14.50
2018,08,23,00,27,14.50
2018,08,23,00,28,14.50
2018,08,23,00,29,14.50
2018,08,23,00,30,14.50
2018,08,23,00,31,14.40
2018,08,23,00,32,14.40
2018,08,23,00,33,14.40
2018,08,23,00,34,14.40
2018,08,23,00,35,14.40
2018,08,23,00,36,14.40
2018,08,23,00,37,14.30
2018,08,23,00,38,14.30
2018,08,23,00,39,14.30
2018,08,23,00,40,14.30
2018,08,23,00,41,14.30
2018,08,23,00,42,14.30
2018,08,23,00,43,14.30
2018,08,23,00,44,14.20
2018,08,23,00,45,14.20
2018,08,23,00,46,14.20
2018,08,23,00,47,14.30
2018,08,23,00,48,14.30
2018,08,23,00,49,14.30
2018,08,23,00,50,14.20
2018,08,23,00,51,14.20
2018,08,23,00,52,14.20
2018,08,23,00,53,14.10
2018,08,23,00,54,14.10
2018,08,23,00,55,14.10
2018,08,23,00,56,14.10
2018,08,23,00,57,14.20
2018,08,23,00,58,14.20
2018,08,23,00,59,14.20
2018,08,23,01,00,14.20
2018,08,23,01,01,14.20
2018,08,23,01,02,14.20
2018,08,23,01,03,14.20
2018,08,23,01,04,14.30
2018,08,23,01,05,14.30
2018,08,23,01,06,14.30
2018,08,23,01,07,14.30
2018,08,23,01,08,14.30
2018,08,23,01,09,14.30
2018,08,23,01,10,14.30
2018,08,23,01,11,14.30
2018,08,23,01,12,14.30
2018,08,23,01,13,14.30
2018,08,23,01,14,14.30
2018,08,23,01,15,14.30
2018,08,23,01,16,14.30
2018,08,23,01,17,14.30
2018,08,23,01,18,14.20
2018,08,23,01,19,14.20
2018,08,23,01,20,14.20
2018,08,23,01,21,14.20
2018,08,23,01,22,14.20
2018,08,23,01,23,14.20
2018,08,23,01,24,14.10
2018,08,23,01,25,14.10
2018,08,23,01,26,14.10
2018,08,23,01,27,14.10
2018,08,23,01,28,14.10
2018,08,23,01,29,14.10
2018,08,23,01,30,14.10
2018,08,23,01,31,14.00
2018,08,23,01,32,14.00
2018,08,23,01,33,14.00
2018,08,23,01,34,14.00
2018,08,23,01,35,14.00
2018,08,23,01,36,14.00
2018,08,23,01,37,14.00
2018,08,23,01,38,14.00
2018,08,23,01,39,14.10
2018,08,23,01,40,14.10
2018,08,23,01,41,14.10
2018,08,23,01,42,14.10
2018,08,23,01,43,14.10
2018,08,23,01,44,14.00
2018,08,23,01,45,14.00
2018,08,23,01,46,14.00
2018,08,23,01,47,14.00
2018,08,23,01,48,14.00
2018,08,23,01,49,13.90
2018,08,23,01,50,13.90
2018,08,23,01,51,13.90
2018,08,23,01,52,13.90
2018,08,23,01,53,13.90
2018,08,23,01,54,13.90
2018,08,23,01,55,13.80
2018,08,23,01,56,13.80
2018,08,23,01,57,13.80
2018,08,23,01,58,13.80
2018,08,23,01,59,13.80
2018,08,23,02,00,13.80
2018,08,23,02,01,13.80
2018,08,23,02,02,13.70
2018,08,23,02,03,13.70
2018,08,23,02,04,13.70
2018,08,23,02,05,13.70
2018,08,23,02,06,13.70
2018,08,23,02,07,13.70
2018,08,23,02,08,13.70
2018,08,23,02,09,13.60
2018,08,23,02,10,13.60
2018,08,23,02,11,13.60
2018,08,23,02,12,13.60
2018,08,23,02,13,13.50
2018,08,23,02,14,13.50
2018,08,23,02,15,13.50
2018,08,23,02,16,13.50
2018,08,23,02,17,13.50
2018,08,23,02,18,13.40
2018,08,23,02,19,13.40
2018,08,23,02,20,13.40
2018,08,23,02,21,13.40
2018,08,23,02,22,13.40
2018,08,23,02,23,13.40
2018,08,23,02,24,13.40
2018,08,23,02,25,13.40
2018,08,23,02,26,13.30
2018,08,23,02,27,13.30
2018,08,23,02,28,13.30
2018,08,23,02,29,13.30
2018,08,23,02,30,13.30
2018,08,23,02,31,13.30
2018,08,23,02,32,13.30
2018,08,23,02,33,13.30
2018,08,23,02,34,13.30
2018,08,23,02,35,13.30
2018,08,23,02,36,13.30
2018,08,23,02,37,13.30
2018,08,23,02,38,13.30
2018,08,23,02,39,13.30
2018,08,23,02,40,13.30
2018,08,23,02,41,13.30
2018,08,23,02,42,13.30
2018,08,23,02,43,13.30
2018,08,23,02,44,13.30
2018,08,23,02,45,13.30
2018,08,23,02,46,13.30
2018,08,23,02,47,13.30
2018,08,23,02,48,13.20
2018,08,23,02,49,13.30
2018,08,23,02,50,13.20
2018,08,23,02,51,13.20
2018,08,23,02,52,13.20
2018,08,23,02,53,13.30
2018,08,23,02,54,13.20
2018,08,23,02,55,13.20
2018,08,23,02,56,13.30
2018,08,23,02,57,13.30
2018,08,23,02,58,13.30
2018,08,23,02,59,13.30
2018,08,23,03,00,13.30
2018,08,23,03,01,13.30
2018,08,23,03,02,13.30
2018,08,23,03,03,13.30
2018,08,23,03,04,13.30
2018,08,23,03,05,13.30
2018,08,23,03,06,13.30
2018,08,23,03,07,13.30
2018,08,23,03,08,13.30
2018,08,23,03,09,13.30
2018,08,23,03,10,13.30
2018,08,23,03,11,13.30
2018,08,23,03,12,13.30
2018,08,23,03,13,13.30
2018,08,23,03,14,13.30
2018,08,23,03,15,13.20
2018,08,23,03,16,13.20
2018,08,23,03,17,13.20
2018,08,23,03,18,13.20
2018,08,23,03,19,13.20
2018,08,23,03,20,13.20
2018,08,23,03,21,13.20
2018,08,23,03,22,13.20
2018,08,23,03,23,13.10
2018,08,23,03,24,13.10
2018,08,23,03,25,13.10
2018,08,23,03,26,13.10
2018,08,23,03,27,13.10
2018,08,23,03,28,13.10
2018,08,23,03,29,13.00
2018,08,23,03,30,13.00
2018,08,23,03,31,13.00
2018,08,23,03,32,13.00
2018,08,23,03,33,12.90
2018,08,23,03,34,12.90
2018,08,23,03,35,12.90
2018,08,23,03,36,12.90
2018,08,23,03,37,12.90
2018,08,23,03,38,12.80
2018,08,23,03,39,12.80
2018,08,23,03,40,12.80
2018,08,23,03,41,12.80
2018,08,23,03,42,12.80
2018,08,23,03,43,12.80
2018,08,23,03,44,12.70
2018,08,23,03,45,12.70
2018,08,23,03,46,12.70
2018,08,23,03,47,12.70
2018,08,23,03,48,12.70
2018,08,23,03,49,12.70
2018,08,23,03,50,12.70
2018,08,23,03,51,12.70
2018,08,23,03,52,12.70
2018,08,23,03,53,12.70
2018,08,23,03,54,12.60
2018,08,23,03,55,12.60
2018,08,23,03,56,12.60
2018,08,23,03,57,12.50
2018,08,23,03,58,12.50
2018,08,23,03,59,12.50
2018,08,23,04,00,12.50
2018,08,23,04,01,12.40
2018,08,23,04,02,12.40
2018,08,23,04,03,12.40
2018,08,23,04,04,12.40
2018,08,23,04,05,12.40
2018,08,23,04,06,12.40
2018,08,23,04,07,12.40
2018,08,23,04,08,12.40
2018,08,23,04,09,12.40
2018,08,23,04,10,12.40
2018,08,23,04,11,12.40
2018,08,23,04,12,12.40
2018,08,23,04,13,12.40
2018,08,23,04,14,12.30
2018,08,23,04,15,12.30
2018,08,23,04,16,12.30
2018,08,23,04,17,12.30
2018,08,23,04,18,12.30
2018,08,23,04,19,12.30
2018,08,23,04,20,12.30
2018,08,23,04,21,12.30
2018,08,23,04,22,12.30
2018,08,23,04,23,12.30
2018,08,23,04,24,12.30
2018,08,23,04,25,12.30
2018,08,23,04,26,12.30
2018,08,23,04,27,12.30
2018,08,23,04,28,12.30
2018,08,23,04,29,12.20
2018,08,23,04,30,12.20
2018,08,23,04,31,12.20
2018,08,23,04,32,12.20
2018,08,23,04,33,12.10
2018,08,23,04,34,12.10
2018,08,23,04,35,12.10
2018,08,23,04,36,12.10
2018,08,23,04,37,12.10
2018,08,23,04,38,12.10
2018,08,23,04,39,12.00
2018,08,23,04,40,12.00
2018,08,23,04,41,12.00
2018,08,23,04,42,12.00
2018,08,23,04,43,12.00
2018,08,23,04,44,11.90
2018,08,23,04,45,11.90
2018,08,23,04,46,11.90
2018,08,23,04,47,11.90
2018,08,23,04,48,11.90
2018,08,23,04,49,11.90
2018,08,23,04,50,11.90
2018,08,23,04,51,11.90
2018,08,23,04,52,11.90
2018,08,23,04,53,11.90
2018,08,23,04,54,11.90
2018,08,23,04,55,11.80
2018,08,23,04,56,11.80
2018,08,23,04,57,11.80
2018,08,23,04,58,11.80
2018,08,23,04,59,11.80
2018,08,23,05,00,11.80
2018,08,23,05,01,11.80
2018,08,23,05,02,11.80
2018,08,23,05,03,11.80
2018,08,23,05,04,11.80
2018,08,23,05,05,11.80
2018,08,23,05,06,11.80
2018,08,23,05,07,11.80
2018,08,23,05,08,11.80
2018,08,23,05,09,11.80
2018,08,23,05,10,11.80
2018,08,23,05,11,11.70
2018,08,23,05,12,11.70
2018,08,23,05,13,11.70
2018,08,23,05,14,11.70
2018,08,23,05,15,11.70
2018,08,23,05,16,11.70
2018,08,23,05,17,11.70
2018,08,23,05,18,11.70
2018,08,23,05,19,11.70
2018,08,23,05,20,11.60
2018,08,23,05,21,11.60
2018,08,23,05,22,11.60
2018,08,23,05,23,11.60
2018,08,23,05,24,11.60
2018,08,23,05,25,11.60
2018,08,23,05,26,11.60
2018,08,23,05,27,11.60
2018,08,23,05,28,11.50
2018,08,23,05,29,11.50
2018,08,23,05,30,11.50
2018,08,23,05,31,11.50
2018,08,23,05,32,11.50
2018,08,23,05,33,11.40
2018,08,23,05,34,11.40
2018,08,23,05,35,11.40
2018,08,23,05,36,11.40
2018,08,23,05,37,11.40
2018,08,23,05,38,11.40
2018,08,23,05,39,11.40
2018,08,23,05,40,11.40
2018,08,23,05,41,11.40
2018,08,23,05,42,11.40
2018,08,23,05,43,11.40
2018,08,23,05,44,11.40
2018,08,23,05,45,11.40
2018,08,23,05,46,11.40
2018,08,23,05,47,11.40
2018,08,23,05,48,11.40
2018,08,23,05,49,11.40
2018,08,23,05,50,11.30
2018,08,23,05,51,11.30
2018,08,23,05,52,11.30
2018,08,23,05,53,11.30
2018,08,23,05,54,11.30
2018,08,23,05,55,11.30
2018,08,23,05,56,11.30
2018,08,23,05,57,11.30
2018,08,23,05,58,11.30
2018,08,23,05,59,11.20
2018,08,23,06,00,11.20
2018,08,23,06,01,11.20
2018,08,23,06,02,11.20
2018,08,23,06,03,11.20
2018,08,23,06,04,11.20
2018,08,23,06,05,11.20
2018,08,23,06,06,11.20
2018,08,23,06,07,11.20
2018,08,23,06,08,11.20
2018,08,23,06,09,11.20
2018,08,23,06,10,11.20
2018,08,23,06,11,11.20
2018,08,23,06,12,11.10
2018,08,23,06,13,11.10
2018,08,23,06,14,11.10
2018,08,23,06,15,11.10
2018,08,23,06,16,11.10
2018,08,23,06,17,11.10
2018,08,23,06,18,11.10
2018,08,23,06,19,11.10
2018,08,23,06,20,11.10
2018,08,23,06,21,11.10
2018,08,23,06,22,11.10
2018,08,23,06,23,11.10
2018,08,23,06,24,11.10
2018,08,23,06,25,11.10
2018,08,23,06,26,11.10
2018,08,23,06,27,11.10
2018,08,23,06,28,11.10
2018,08,23,06,29,11.10
2018,08,23,06,30,11.10
2018,08,23,06,31,11.10
2018,08,23,06,32,11.00
2018,08,23,06,33,11.00
2018,08,23,06,34,11.00
2018,08,23,06,35,11.00
2018,08,23,06,36,11.00
2018,08,23,06,37,11.00
2018,08,23,06,38,11.00
2018,08,23,06,39,11.00
2018,08,23,06,40,11.00
2018,08,23,06,41,10.90
2018,08,23,06,42,10.90
2018,08,23,06,43,10.90
2018,08,23,06,44,10.90
2018,08,23,06,45,10.90
2018,08,23,06,46,10.90
2018,08,23,06,47,10.90
2018,08,23,06,48,10.90
2018,08,23,06,49,10.90
2018,08,23,06,50,10.90
2018,08,23,06,51,10.90
2018,08,23,06,52,10.90
2018,08,23,06,53,10.90
2018,08,23,06,54,10.90
2018,08,23,06,55,10.90
2018,08,23,06,56,10.90
2018,08,23,06,57,10.90
2018,08,23,06,58,10.90
2018,08,23,06,59,10.90
2018,08,23,07,00,10.90
2018,08,23,07,01,10.90
2018,08,23,07,02,10.90
2018,08,23,07,03,10.90
2018,08,23,07,04,10.90
2018,08,23,07,05,10.90
2018,08,23,07,06,10.90
2018,08,23,07,07,10.90
2018,08,23,07,08,10.90
2018,08,23,07,09,10.90
2018,08,23,07,10,10.90
2018,08,23,07,11,10.90
2018,08,23,07,12,10.90
2018,08,23,07,13,11.00
2018,08,23,07,14,11.00
2018,08,23,07,15,11.00
2018,08,23,07,16,11.00
2018,08,23,07,17,11.00
2018,08,23,07,18,11.00
2018,08,23,07,19,11.00
2018,08,23,07,20,11.00
2018,08,23,07,21,11.00
2018,08,23,07,22,11.10
2018,08,23,07,23,11.10
2018,08,23,07,24,11.10
2018,08,23,07,25,11.10
2018,08,23,07,26,11.10
2018,08,23,07,27,11.10
2018,08,23,07,28,11.10
2018,08,23,07,29,11.10
2018,08,23,07,30,11.10
2018,08,23,07,31,11.10
2018,08,23,07,32,11.10
2018,08,23,07,33,11.10
2018,08,23,07,34,11.10
2018,08,23,07,35,11.10
2018,08,23,07,36,11.20
2018,08,23,07,37,11.20
2018,08,23,07,38,11.20
2018,08,23,07,39,11.20
2018,08,23,07,40,11.20
2018,08,23,07,41,11.30
2018,08,23,07,42,11.30
2018,08,23,07,43,11.30
2018,08,23,07,44,11.40
2018,08,23,07,45,11.40
2018,08,23,07,46,11.40
2018,08,23,07,47,11.40
2018,08,23,07,48,11.40
2018,08,23,07,49,11.50
2018,08,23,07,50,11.50
2018,08,23,07,51,11.50
2018,08,23,07,52,11.60
2018,08,23,07,53,11.60
2018,08,23,07,54,11.60
2018,08,23,07,55,11.60
2018,08,23,07,56,11.70
2018,08,23,07,57,11.70
2018,08,23,07,58,11.80
2018,08,23,07,59,11.80
2018,08,23,08,00,11.90
2018,08,23,08,01,12.00
2018,08,23,08,02,12.00
2018,08,23,08,03,12.10
2018,08,23,08,04,12.20
2018,08,23,08,05,12.20
2018,08,23,08,06,12.30
2018,08,23,08,07,12.30
2018,08,23,08,08,12.40
2018,08,23,08,09,12.40
2018,08,23,08,10,12.40
2018,08,23,08,11,12.40
2018,08,23,08,12,12.50
2018,08,23,08,13,12.50
2018,08,23,08,14,12.50
2018,08,23,08,15,12.50
2018,08,23,08,16,12.60
2018,08,23,08,17,12.60
2018,08,23,08,18,12.70
2018,08,23,08,19,12.70
2018,08,23,08,20,12.70
2018,08,23,08,21,12.80
2018,08,23,08,22,12.80
2018,08,23,08,23,12.90
2018,08,23,08,24,12.90
2018,08,23,08,25,13.00
2018,08,23,08,26,13.10
2018,08,23,08,27,13.10
2018,08,23,08,28,13.10
2018,08,23,08,29,13.20
2018,08,23,08,30,13.20
2018,08,23,08,31,13.20
2018,08,23,08,32,13.30
2018,08,23,08,33,13.30
2018,08,23,08,34,13.30
2018,08,23,08,35,13.40
2018,08,23,08,36,13.50
2018,08,23,08,37,13.60
2018,08,23,08,38,13.70
2018,08,23,08,39,13.80
2018,08,23,08,40,13.80
2018,08,23,08,41,13.80
2018,08,23,08,42,13.90
2018,08,23,08,43,13.90
2018,08,23,08,44,14.00
2018,08,23,08,45,14.00
2018,08,23,08,46,14.10
2018,08,23,08,47,14.10
2018,08,23,08,48,14.10
2018,08,23,08,49,14.20
2018,08,23,08,50,14.20
2018,08,23,08,51,14.20
2018,08,23,08,52,14.30
2018,08,23,08,53,14.30
2018,08,23,08,54,14.40
2018,08,23,08,55,14.50
2018,08,23,08,56,14.50
2018,08,23,08,57,14.60
2018,08,23,08,58,14.60
2018,08,23,08,59,14.70
2018,08,23,09,00,14.70
2018,08,23,09,01,14.80
2018,08,23,09,02,14.80
2018,08,23,09,03,14.80
2018,08,23,09,04,14.90
2018,08,23,09,05,14.90
2018,08,23,09,06,14.90
2018,08,23,09,07,15.00
2018,08,23,09,08,15.10
2018,08,23,09,09,15.10
2018,08,23,09,10,15.20
2018,08,23,09,11,15.20
2018,08,23,09,12,15.30
2018,08,23,09,13,15.30
2018,08,23,09,14,15.30
2018,08,23,09,15,15.40
2018,08,23,09,16,15.40
2018,08,23,09,17,15.40
2018,08,23,09,18,15.40
2018,08,23,09,19,15.40
2018,08,23,09,20,15.40
2018,08,23,09,21,15.40
2018,08,23,09,22,15.40
2018,08,23,09,23,15.40
2018,08,23,09,24,15.40
2018,08,23,09,25,15.40
2018,08,23,09,26,15.50
2018,08,23,09,27,15.50
2018,08,23,09,28,15.50
2018,08,23,09,29,15.50
2018,08,23,09,30,15.50
2018,08,23,09,31,15.50
2018,08,23,09,32,15.40
2018,08,23,09,33,15.40
2018,08,23,09,34,15.40
2018,08,23,09,35,15.40
2018,08,23,09,36,15.40
2018,08,23,09,37,15.40
2018,08,23,09,38,15.40
2018,08,23,09,39,15.40
2018,08,23,09,40,15.40
2018,08,23,09,41,15.40
2018,08,23,09,42,15.40
2018,08,23,09,43,15.40
2018,08,23,09,44,15.40
2018,08,23,09,45,15.40
2018,08,23,09,46,15.40
2018,08,23,09,47,15.40
2018,08,23,09,48,15.50
2018,08,23,09,49,15.50
2018,08,23,09,50,15.60
2018,08,23,09,51,15.60
2018,08,23,09,52,15.60
2018,08,23,09,53,15.60
2018,08,23,09,54,15.60
2018,08,23,09,55,15.60
2018,08,23,09,56,15.60
2018,08,23,09,57,15.60
2018,08,23,09,58,15.60
2018,08,23,09,59,15.70
2018,08,23,10,00,15.70
2018,08,23,10,01,15.70
2018,08,23,10,02,15.70
2018,08,23,10,03,15.70
2018,08,23,10,04,15.70
2018,08,23,10,05,15.70
2018,08,23,10,06,15.60
2018,08,23,10,07,15.60
2018,08,23,10,08,15.60
2018,08,23,10,09,15.50
2018,08,23,10,10,15.50
2018,08,23,10,11,15.40
2018,08,23,10,12,15.40
2018,08,23,10,13,15.40
2018,08,23,10,14,15.40
2018,08,23,10,15,15.30
2018,08,23,10,16,15.30
2018,08,23,10,17,15.30
2018,08,23,10,18,15.30
2018,08,23,10,19,15.30
2018,08,23,10,20,15.30
2018,08,23,10,21,15.30
2018,08,23,10,22,15.30
2018,08,23,10,23,15.30
2018,08,23,10,24,15.40
2018,08,23,10,25,15.40
2018,08,23,10,26,15.40
2018,08,23,10,27,15.40
2018,08,23,10,28,15.40
2018,08,23,10,29,15.40
2018,08,23,10,30,15.40
2018,08,23,10,31,15.50
2018,08,23,10,32,15.50
2018,08,23,10,33,15.50
2018,08,23,10,34,15.50
2018,08,23,10,35,15.50
2018,08,23,10,36,15.50
2018,08,23,10,37,15.50
2018,08,23,10,38,15.60
2018,08,23,10,39,15.60
2018,08,23,10,40,15.60
2018,08,23,10,41,15.70
2018,08,23,10,42,15.70
2018,08,23,10,43,15.70
2018,08,23,10,44,15.80
2018,08,23,10,45,15.80
2018,08,23,10,46,15.80
2018,08,23,10,47,15.80
2018,08,23,10,48,15.90
2018,08,23,10,49,16.00
2018,08,23,10,50,16.00
2018,08,23,10,51,16.10
2018,08,23,10,52,16.10
2018,08,23,10,53,16.10
2018,08,23,10,54,16.10
2018,08,23,10,55,16.20
2018,08,23,10,56,16.10
2018,08,23,10,57,16.10
2018,08,23,10,58,16.10
2018,08,23,10,59,16.00
2018,08,23,11,00,15.90
2018,08,23,11,01,15.90
2018,08,23,11,02,15.90
2018,08,23,11,03,15.80
2018,08,23,11,04,15.80
2018,08,23,11,05,15.80
2018,08,23,11,06,15.80
2018,08,23,11,07,15.80
2018,08,23,11,08,15.80
2018,08,23,11,09,15.80
2018,08,23,11,10,15.80
2018,08,23,11,11,15.80
2018,08,23,11,12,15.90
2018,08,23,11,13,15.90
2018,08,23,11,14,15.90
2018,08,23,11,15,15.90
2018,08,23,11,16,16.00
2018,08,23,11,17,16.10
2018,08,23,11,18,16.10
2018,08,23,11,19,16.20
2018,08,23,11,20,16.20
2018,08,23,11,21,16.20
2018,08,23,11,22,16.20
2018,08,23,11,23,16.20
2018,08,23,11,24,16.30
2018,08,23,11,25,16.30
2018,08,23,11,26,16.30
2018,08,23,11,27,16.30
2018,08,23,11,28,16.40
2018,08,23,11,29,16.40
2018,08,23,11,30,16.40
2018,08,23,11,31,16.40
2018,08,23,11,32,16.40
2018,08,23,11,33,16.40
2018,08,23,11,34,16.40
2018,08,23,11,35,16.30
2018,08,23,11,36,16.30
2018,08,23,11,37,16.30
2018,08,23,11,38,16.30
2018,08,23,11,39,16.30
2018,08,23,11,40,16.30
2018,08,23,11,41,16.30
2018,08,23,11,42,16.20
2018,08,23,11,43,16.20
2018,08,23,11,44,16.20
2018,08,23,11,45,16.20
2018,08,23,11,46,16.20
2018,08,23,11,47,16.20
2018,08,23,11,48,16.20
2018,08,23,11,49,16.20
2018,08,23,11,50,16.20
2018,08,23,11,51,16.20
2018,08,23,11,52,16.20
2018,08,23,11,53,16.20
2018,08,23,11,54,16.20
2018,08,23,11,55,16.20
2018,08,23,11,56,16.20
2018,08,23,11,57,16.30
2018,08,23,11,58,16.30
2018,08,23,11,59,16.30
2018,08,23,12,00,16.30
2018,08,23,12,01,16.30
2018,08,23,12,02,16.30
2018,08,23,12,03,16.40
2018,08,23,12,04,16.40
2018,08,23,12,05,16.40
2018,08,23,12,06,16.30
2018,08,23,12,07,16.30
2018,08,23,12,08,16.20
2018,08,23,12,09,16.20
2018,08,23,12,10,16.10
2018,08,23,12,11,16.10
2018,08,23,12,12,16.10
2018,08,23,12,13,16.10
2018,08,23,12,14,16.10
2018,08,23,12,15,16.10
2018,08,23,12,16,16.10
2018,08,23,12,17,16.10
2018,08,23,12,18,16.00
2018,08,23,12,19,16.00
2018,08,23,12,20,16.00
2018,08,23,12,21,15.90
2018,08,23,12,22,15.90
2018,08,23,12,23,15.90
2018,08,23,12,24,15.90
2018,08,23,12,25,15.90
2018,08,23,12,26,15.90
2018,08,23,12,27,15.90
2018,08,23,12,28,15.90
2018,08,23,12,29,15.90
2018,08,23,12,30,15.90
2018,08,23,12,31,15.90
2018,08,23,12,32,15.90
2018,08,23,12,33,16.00
2018,08,23,12,34,16.00
2018,08,23,12,35,16.00
2018,08,23,12,36,16.00
2018,08,23,12,37,16.00
2018,08,23,12,38,16.00
2018,08,23,12,39,16.10
2018,08,23,12,40,16.10
2018,08,23,12,41,16.10
2018,08,23,12,42,16.10
2018,08,23,12,43,16.10
2018,08,23,12,44,16.10
2018,08,23,12,45,16.20
2018,08,23,12,46,16.20
2018,08,23,12,47,16.20
2018,08,23,12,48,16.20
2018,08,23,12,49,16.20
2018,08,23,12,50,16.30
2018,08,23,12,51,16.30
2018,08,23,12,52,16.30
2018,08,23,12,53,16.30
2018,08,23,12,54,16.30
2018,08,23,12,55,16.40
2018,08,23,12,56,16.40
2018,08,23,12,57,16.40
2018,08,23,12,58,16.40
2018,08,23,12,59,16.30
2018,08,23,13,00,16.30
2018,08,23,13,01,16.30
2018,08,23,13,02,16.30
2018,08,23,13,03,16.30
2018,08,23,13,04,16.20
2018,08,23,13,05,16.20
2018,08,23,13,06,16.20
2018,08,23,13,07,16.20
2018,08,23,13,08,16.20
2018,08,23,13,09,16.10
2018,08,23,13,10,16.10
2018,08,23,13,11,16.10
2018,08,23,13,12,16.00
2018,08,23,13,13,16.00
2018,08,23,13,14,16.00
2018,08,23,13,15,16.00
2018,08,23,13,16,16.10
2018,08,23,13,17,16.10
2018,08,23,13,18,16.10
2018,08,23,13,19,16.10
2018,08,23,13,20,16.10
2018,08,23,13,21,16.20
2018,08,23,13,22,16.20
2018,08,23,13,23,16.20
2018,08,23,13,24,16.20
2018,08,23,13,25,16.20
2018,08,23,13,26,16.20
2018,08,23,13,27,16.20
2018,08,23,13,28,16.20
2018,08,23,13,29,16.10
2018,08,23,13,30,16.10
2018,08,23,13,31,16.10
2018,08,23,13,32,16.10
2018,08,23,13,33,16.10
2018,08,23,13,34,16.10
2018,08,23,13,35,16.10
2018,08,23,13,36,16.10
2018,08,23,13,37,16.10
2018,08,23,13,38,16.10
2018,08,23,13,39,16.10
2018,08,23,13,40,16.10
2018,08,23,13,41,16.10
2018,08,23,13,42,16.10
2018,08,23,13,43,16.00
2018,08,23,13,44,16.00
2018,08,23,13,45,16.00
2018,08,23,13,46,16.00
2018,08,23,13,47,16.10
2018,08,23,13,48,16.10
2018,08,23,13,49,16.10
2018,08,23,13,50,16.10
2018,08,23,13,51,16.10
2018,08,23,13,52,16.20
2018,08,23,13,53,16.20
2018,08,23,13,54,16.20
2018,08,23,13,55,16.20
2018,08,23,13,56,16.20
2018,08,23,13,57,16.20
2018,08,23,13,58,16.10
2018,08,23,13,59,16.10
2018,08,23,14,00,16.10
2018,08,23,14,01,16.20
2018,08,23,14,02,16.20
2018,08,23,14,03,16.20
2018,08,23,14,04,16.20
2018,08,23,14,05,16.30
2018,08,23,14,06,16.30
2018,08,23,14,07,16.30
2018,08,23,14,08,16.30
2018,08,23,14,09,16.30
2018,08,23,14,10,16.30
2018,08,23,14,11,16.30
2018,08,23,14,12,16.40
2018,08,23,14,13,16.40
2018,08,23,14,14,16.50
2018,08,23,14,15,16.60
2018,08,23,14,16,16.60
2018,08,23,14,17,16.70
2018,08,23,14,18,16.70
2018,08,23,14,19,16.80
2018,08,23,14,20,16.90
2018,08,23,14,21,17.10
2018,08,23,14,22,17.20
2018,08,23,14,23,17.30
2018,08,23,14,24,17.40
2018,08,23,14,25,17.50
2018,08,23,14,26,17.60
2018,08,23,14,27,17.60
2018,08,23,14,28,17.60
2018,08,23,14,29,17.60
2018,08,23,14,30,17.70
2018,08,23,14,31,17.70
2018,08,23,14,32,17.80
2018,08,23,14,33,17.80
2018,08,23,14,34,17.80
2018,08,23,14,35,17.80
2018,08,23,14,36,17.90
2018,08,23,14,37,18.00
2018,08,23,14,38,18.10
2018,08,23,14,39,18.10
2018,08,23,14,40,18.10
2018,08,23,14,41,18.10
2018,08,23,14,42,18.00
2018,08,23,14,43,18.00
2018,08,23,14,44,18.00
2018,08,23,14,45,18.00
2018,08,23,14,46,18.00
2018,08,23,14,47,18.00
2018,08,23,14,48,18.00
2018,08,23,14,49,17.90
2018,08,23,14,50,17.90
2018,08,23,14,51,17.90
2018,08,23,14,52,17.90
2018,08,23,14,53,17.90
2018,08,23,14,54,17.90
2018,08,23,14,55,17.90
2018,08,23,14,56,17.80
2018,08,23,14,57,17.80
2018,08,23,14,58,17.80
2018,08,23,14,59,17.80
2018,08,23,15,00,17.90
2018,08,23,15,01,18.00
2018,08,23,15,02,18.10
2018,08,23,15,03,18.20
2018,08,23,15,04,18.20
2018,08,23,15,05,18.20
2018,08,23,15,06,18.30
2018,08,23,15,07,18.30
2018,08,23,15,08,18.30
2018,08,23,15,09,18.20
2018,08,23,15,10,18.20
2018,08,23,15,11,18.30
2018,08,23,15,12,18.30
2018,08,23,15,13,18.30
2018,08,23,15,14,18.40
2018,08,23,15,15,18.40
2018,08,23,15,16,18.40
2018,08,23,15,17,18.40
2018,08,23,15,18,18.40
2018,08,23,15,19,18.50
2018,08,23,15,20,18.50
2018,08,23,15,21,18.50
2018,08,23,15,22,18.50
2018,08,23,15,23,18.40
2018,08,23,15,24,18.40
2018,08,23,15,25,18.40
2018,08,23,15,26,18.30
2018,08,23,15,27,18.30
2018,08,23,15,28,18.30
2018,08,23,15,29,18.20
2018,08,23,15,30,18.20
2018,08,23,15,31,18.10
2018,08,23,15,32,18.00
2018,08,23,15,33,18.00
2018,08,23,15,34,18.00
2018,08,23,15,35,18.00
2018,08,23,15,36,18.00
2018,08,23,15,37,18.00
2018,08,23,15,38,18.10
2018,08,23,15,39,18.10
2018,08,23,15,40,18.10
2018,08,23,15,41,18.20
2018,08,23,15,42,18.20
2018,08,23,15,43,18.20
2018,08,23,15,44,18.30
2018,08,23,15,45,18.30
2018,08,23,15,46,18.20
2018,08,23,15,47,18.20
2018,08,23,15,48,18.20
2018,08,23,15,49,18.20
2018,08,23,15,50,18.30
2018,08,23,15,51,18.30
2018,08,23,15,52,18.30
2018,08,23,15,53,18.30
2018,08,23,15,54,18.30
2018,08,23,15,55,18.30
2018,08,23,15,56,18.20
2018,08,23,15,57,18.20
2018,08,23,15,58,18.10
2018,08,23,15,59,18.10
2018,08,23,16,00,18.10
2018,08,23,16,01,18.10
2018,08,23,16,02,18.00
2018,08,23,16,03,18.00
2018,08,23,16,04,18.00
2018,08,23,16,05,18.00
2018,08,23,16,06,17.90
2018,08,23,16,07,17.90
2018,08,23,16,08,17.90
2018,08,23,16,09,17.90
2018,08,23,16,10,17.80
2018,08,23,16,11,17.80
2018,08,23,16,12,17.80
2018,08,23,16,13,17.80
2018,08,23,16,14,17.80
2018,08,23,16,15,17.80
2018,08,23,16,16,17.90
2018,08,23,16,17,17.90
2018,08,23,16,18,17.90
2018,08,23,16,19,18.00
2018,08,23,16,20,18.00
2018,08,23,16,21,18.10
2018,08,23,16,22,18.10
2018,08,23,16,23,18.10
2018,08,23,16,24,18.10
2018,08,23,16,25,18.10
2018,08,23,16,26,18.10
2018,08,23,16,27,18.10
2018,08,23,16,28,18.00
2018,08,23,16,29,18.00
2018,08,23,16,30,18.00
2018,08,23,16,31,17.90
2018,08,23,16,32,17.90
2018,08,23,16,33,17.90
2018,08,23,16,34,17.90
2018,08,23,16,35,17.80
2018,08,23,16,36,17.80
2018,08,23,16,37,17.80
2018,08,23,16,38,17.90
2018,08,23,16,39,17.90
2018,08,23,16,40,17.90
2018,08,23,16,41,17.90
2018,08,23,16,42,17.90
2018,08,23,16,43,17.90
2018,08,23,16,44,17.90
2018,08,23,16,45,17.90
2018,08,23,16,46,17.80
2018,08,23,16,47,17.80
2018,08,23,16,48,17.80
2018,08,23,16,49,17.80
2018,08,23,16,50,17.80
2018,08,23,16,51,17.90
2018,08,23,16,52,17.90
2018,08,23,16,53,17.90
2018,08,23,16,54,17.90
2018,08,23,16,55,17.90
2018,08,23,16,56,17.90
2018,08,23,16,57,17.90
2018,08,23,16,58,17.90
2018,08,23,16,59,17.90
2018,08,23,17,00,17.90
2018,08,23,17,01,17.90
2018,08,23,17,02,17.90
2018,08,23,17,03,17.90
2018,08,23,17,04,17.90
2018,08,23,17,05,17.90
2018,08,23,17,06,17.90
2018,08,23,17,07,17.90
2018,08,23,17,08,17.90
2018,08,23,17,09,17.90
2018,08,23,17,10,17.90
2018,08,23,17,11,17.90
2018,08,23,17,12,17.90
2018,08,23,17,13,17.90
2018,08,23,17,14,18.00
2018,08,23,17,15,18.00
2018,08,23,17,16,18.00
2018,08,23,17,17,18.10
2018,08,23,17,18,18.10
2018,08,23,17,19,18.10